Location: Bonningues
(50.7927°N, 2.0150°E)
Time: 17:00:41
(UTC+00:00)

Cosmos 1741 Rocket - Pass Details

Date: 08 August 2020
Orbit: 761 x 783 km, 74.0° (Epoch: 25 September)

Event Time Altitude Azimuth Distance (km) Brightness Sun altitude
Exits shadow 21:48:18 31° 158° (SSE) 1,322 4.7 -17.6°
Maximum altitude 21:50:20 47° 106° (ESE) 1,019 4.3 -17.8°
Drops below altitude 10° 21:55:22 10° 34° (NE) 2,329 6.8 -18.2°
Sets 21:57:50 0° 29° (NNE) 3,265 7.7 -18.4°
